Flag for U.S.A. Weather past 2 weeks in Sioux Falls, South Dakota, U.S.A.

Now
37 °F

Light rain. Fog.


Feels Like: 26 °F
Forecast: 28 / 50 °F
Wind: 21 mph from North

Location: Foss Field


UV Index: 0 (Low)

Visibility: 6 mi


Pressure: 29.77 "Hg

Humidity: 93%

Dew point: 35 °F

Location of Sioux FallsLocation

Historic Weather in Sioux Falls

°F

Sioux Falls temperature yesterday

Maximum temperature yesterday: 46 °F (at 3:56 PM)
Minimum temperature yesterday: 12 °F (at 6:56 AM)
Average temperature yesterday: 31 °F

Past Weeks' High & Low Weather Summary

 TemperatureHumidityPressure
High81 °F (Apr 9, 5:56 PM)100% (Apr 3, 5:56 PM)30.24 "Hg (Apr 3, 5:56 PM)
Low12 °F (Apr 15, 6:56 AM)14% (Apr 9, 5:56 PM)29.54 "Hg (Apr 9, 8:56 PM)
Average43 °F60%29.93 "Hg
* Reported Apr 1 2:56 PM — Apr 16 2:56 PM, Sioux Falls, Weather by CustomWeather, © 2014

Note: Actual official high and low records may vary slightly from our data, if they occured in-between our weather recording intervals... More about our weather records

Advertising

Historic Weather Conditions — Data for Previous 24 hours

 ConditionsComfort  
Time TempWeatherWind HumidityBarometerVisibility
2:56 PM
Apr 16
37 °FLight rain. Fog.21 mph93%29.77 "Hg6 mi
1:56 PM43 °FLight rain. Overcast.16 mph82%29.71 "Hg9 mi
12:56 PM47 °FLight rain. Overcast.5 mph61%29.67 "Hg10 mi
11:56 AM47 °FCloudy.13 mph69%29.67 "Hg10 mi
10:56 AM43 °FLight rain. Overcast.20 mph71%29.63 "Hg10 mi
9:56 AM44 °FLight rain. Overcast.16 mph63%29.65 "Hg7 mi
8:56 AM46 °FLight rain. Mostly cloudy.22 mph48%29.63 "Hg10 mi
7:56 AM46 °FOvercast.12 mph48%29.63 "Hg10 mi
6:56 AM46 °FOvercast.14 mph44%29.62 "Hg10 mi
5:56 AM43 °FOvercast.12 mph56%29.63 "Hg10 mi
4:56 AM42 °FOvercast.14 mph60%29.65 "Hg10 mi
3:56 AM41 °FOvercast.15 mph60%29.67 "Hg10 mi
2:56 AM40 °FPassing clouds.13 mph63%29.70 "Hg10 mi
1:56 AM41 °FClear.16 mph58%29.72 "Hg10 mi
12:56 AM40 °FOvercast.16 mph58%29.75 "Hg10 mi
11:56 PM
Apr 15
40 °FMostly cloudy.13 mph58%29.78 "Hg10 mi
10:56 PM40 °FMostly cloudy.17 mph55%29.82 "Hg10 mi
9:56 PM40 °FMostly cloudy.17 mph53%29.85 "Hg10 mi
8:56 PM43 °FMore clouds than sun.14 mph45%29.84 "Hg10 mi
7:56 PM45 °FPartly sunny.18 mph40%29.85 "Hg10 mi
5:56 PM46 °FBroken clouds.22 mph37%29.91 "Hg10 mi
4:56 PM46 °FPartly sunny.22 mph35%29.93 "Hg10 mi
3:56 PM46 °FPassing clouds.20 mph33%29.97 "Hg10 mi
Weather by CustomWeather, © 2014

See weather overview